Overview Statistics Trail Chart Weather Telemetry Raw packets
 

This is the latest recevied weather packets stored in our database for station/object GBTWP-2. If no packets are shown the sender has not sent any weather packets the latest 10 day(s).

<< 111 112 113 114 115 >>
Time Temp. Humidity Pressure Rain* Wind** Luminosity Snow
1787837520 20.56° C 82% 1016.7 hPa 0 mm - 204 W/m² -
1787837221 20.56° C 82% 1016.6 hPa 0 mm - 174 W/m² -
1787836920 20.56° C 83% 1016.7 hPa 0 mm - 153 W/m² -
1787836620 20° C 84% 1016.7 hPa 0 mm - 135 W/m² -
1787836320 20° C 85% 1016.9 hPa 0 mm - 122 W/m² -
1787836020 20° C 86% 1016.9 hPa 0 mm - 115 W/m² -
1787835720 20° C 86% 1016.7 hPa 0 mm - 104 W/m² -
1787835420 20° C 86% 1016.9 hPa 0 mm - 96 W/m² -
1787835120 19.44° C 88% 1016.5 hPa 0 mm - 87 W/m² -
1787834820 18.89° C 88% 1016.6 hPa 0 mm - 73 W/m² -
1787834520 18.89° C 89% 1016.7 hPa 0 mm - 73 W/m² -
1787834220 18.33° C 90% 1016.7 hPa 0 mm - 67 W/m² -
1787833920 18.33° C 91% 1016.7 hPa 0 mm - 62 W/m² -
1787833620 18.33° C 91% 1016.6 hPa 0 mm - 57 W/m² -
1787833320 17.78° C 92% 1016.5 hPa 0 mm - 55 W/m² -
1787833020 17.78° C 93% 1016.3 hPa 0 mm - 51 W/m² -
1787832720 17.78° C 94% 1016.4 hPa 0 mm - 48 W/m² -
1787832420 17.22° C 94% 1016.1 hPa 0 mm - 44 W/m² -
1787832120 17.22° C 95% 1016.3 hPa 0 mm - 30 W/m² -
1787831820 17.22° C 95% 1016.2 hPa 1.27 mm - 29 W/m² -
1787831520 17.22° C 95% 1016.2 hPa 1.27 mm - 27 W/m² -
1787831220 17.22° C 95% 1016.3 hPa 1.27 mm - 25 W/m² -
1787830920 16.67° C 95% 1016.1 hPa 0 mm - 24 W/m² -
1787830620 16.67° C 95% 1016.2 hPa 0 mm - 21 W/m² -
1787830320 16.67° C 95% 1016.3 hPa 0 mm - 18 W/m² -

* Rain latest hour (hover to see other rain measurements)
** Current wind speed in m/s (hover to see current wind gust speed)